GW2646 Weather Reports


time (UTC)temp
F
wind
direction
speed
knots
gust
knots
rain 1hr
in
rain 24hr
in
rain mn
in
humidity
%
barometer
mb
20260502190545 65 281 2.6 6.1 0.00 0.00 0.00 74 1016.2
20260502190053 66 15 1.7 7.0 0.00 0.00 0.00 72 1016.3
20260502185548 66 0 0.9 7.0 0.00 0.00 0.00 73 1016.3
20260502185048 65 282 1.7 5.2 0.00 0.00 0.00 70 1016.3
20260502184552 65 322 0.9 5.2 0.00 0.00 0.00 71 1016.4
20260502184051 65 260 1.7 5.2 0.00 0.00 0.00 71 1016.5
20260502183547 65 16 1.7 4.3 0.00 0.00 0.00 73 1016.4
20260502183058 64 203 0.9 6.1 0.00 0.00 0.00 74 1016.5
20260502182549 63 252 0.9 6.1 0.00 0.00 0.00 76 1016.4
20260502182047 63 315 0.9 6.1 0.00 0.00 0.00 75 1016.5
20260502181551 63 296 0.0 6.1 0.00 0.00 0.00 76 1016.4
20260502181047 63 234 0.9 5.2 0.00 0.00 0.00 76 1016.6
20260502180550 62 234 1.7 5.2 0.00 0.00 0.00 76 1016.5
20260502164047 57 317 0.9 4.3 0.00 0.00 0.00 87 1016.8
20260502163547 56 309 0.9 6.1 0.00 0.00 0.00 86 1016.8
20260502163104 56 210 0.9 6.1 0.00 0.00 0.00 87 1017.0
20260502162551 56 241 1.7 4.3 0.00 0.00 0.00 87 1017.0
20260502162050 55 0 0.0 2.6 0.00 0.00 0.00 88 1016.9
20260502161558 54 0 0.0 2.6 0.00 0.00 0.00 90 1016.9
20260502161048 54 0 0.0 2.6 0.00 0.00 0.00 90 1016.8
20260502160548 54 0 0.9 3.5 0.00 0.00 0.00 90 1016.8
20260502160104 53 0 0.9 3.5 0.00 0.00 0.00 90 1016.8
20260502152047 52 0 0.9 4.3 0.00 0.00 0.00 91 1016.7
20260502151556 52 196 0.9 4.3 0.00 0.00 0.00 91 1016.7
20260502151050 52 0 0.9 4.3 0.00 0.00 0.00 92 1016.8
20260502150548 51 220 0.0 4.3 0.00 0.00 0.00 92 1016.7
20260502130549 48 0 0.0 0.0 0.00 0.00 0.00 93 1017.2
20260502123547 48 0 0.0 3.5 0.00 0.00 0.00 93 1017.3
20260502123053 48 167 1.7 3.5 0.00 0.00 0.00 93 1017.2
20260502122548 48 167 0.0 3.5 0.00 0.00 0.00 93 1017.2
20260502122047 48 0 0.0 3.5 0.00 0.00 0.00 93 1017.2
20260502121554 48 167 0.9 3.5 0.00 0.00 0.00 93 1017.1
20260502121051 48 167 0.0 0.9 0.00 0.00 0.00 93 1016.8
20260502120547 48 0 0.0 0.9 0.00 0.00 0.00 93 1016.9
20260502120110 47 0 0.0 0.9 0.00 0.00 0.00 93 1016.7
20260502115547 47 0 0.0 3.5 0.00 0.00 0.00 93 1016.7
20260502115045 47 0 0.0 3.5 0.00 0.00 0.00 93 1016.6
20260502114601 47 167 0.9 3.5 0.00 0.00 0.00 93 1016.5
20260502114048 47 0 0.0 0.0 0.00 0.00 0.00 93 1016.4
20260502113547 47 0 0.0 0.0 0.00 0.00 0.00 92 1016.3
20260502113053 47 0 0.0 0.0 0.00 0.00 0.00 92 1016.3
20260502112548 48 0 0.0 0.0 0.00 0.00 0.00 92 1016.3
20260502112047 48 0 0.0 0.0 0.00 0.00 0.00 92 1016.4
20260502111601 48 0 0.0 0.0 0.00 0.00 0.00 92 1016.4
20260502111049 48 0 0.0 0.0 0.00 0.00 0.00 92 1016.4
20260502110547 49 0 0.0 0.0 0.00 0.00 0.00 92 1016.5
20260502110057 48 0 0.0 0.9 0.00 0.00 0.00 92 1016.4
20260502105548 48 0 0.0 0.9 0.00 0.00 0.00 92 1016.3
20260502105047 48 167 0.0 0.9 0.00 0.00 0.00 91 1016.5
20260502104555 48 0 0.0 0.0 0.00 0.00 0.00 91 1016.6
20260502104046 48 0 0.0 0.0 0.00 0.00 0.00 91 1016.7
20260502103545 49 0 0.0 0.0 0.00 0.00 0.00 91 1016.7
20260502103051 49 0 0.0 0.0 0.00 0.00 0.00 91 1016.6
20260502102546 49 0 0.0 0.0 0.00 0.00 0.00 90 1016.6
20260502102046 49 0 0.0 0.0 0.00 0.00 0.00 90 1016.6
20260502101554 49 0 0.0 0.0 0.00 0.00 0.00 90 1016.6
20260502101045 49 0 0.0 0.0 0.00 0.00 0.00 90 1016.5
20260502100547 49 0 0.0 0.0 0.00 0.00 0.00 90 1016.5
20260502100110 49 0 0.0 0.0 0.00 0.00 0.00 90 1016.5
20260502091045 50 0 0.0 2.6 0.00 0.00 0.00 89 1016.4
20260502090546 50 0 0.0 2.6 0.00 0.00 0.00 89 1016.4
20260502071048 52 0 0.0 0.9 0.00 0.00 0.00 85 1016.2
20260502070547 52 0 0.0 0.9 0.00 0.00 0.00 85 1016.1
20260502070048 52 0 0.0 0.9 0.00 0.00 0.00 85 1016.1
20260502065548 52 0 0.0 0.0 0.00 0.00 0.00 84 1016.1
20260502065047 52 0 0.0 0.0 0.00 0.00 0.00 84 1016.2
20260502064600 53 0 0.0 1.7 0.00 0.00 0.00 84 1016.1
20260502064048 53 0 0.0 1.7 0.00 0.00 0.00 83 1016.1
20260502063551 53 0 0.0 0.9 0.00 0.00 0.00 83 1016.2
20260502063052 53 0 0.0 1.7 0.00 0.00 0.00 83 1016.1
20260502062548 53 0 0.0 1.7 0.00 0.00 0.00 83 1016.1
20260502062051 53 0 0.0 1.7 0.00 0.00 0.00 83 1016.2
20260502061558 53 0 0.0 1.7 0.00 0.00 0.00 83 1016.1
20260502061045 53 212 0.0 1.7 0.00 0.00 0.00 83 1016.1
20260502060547 53 0 0.0 0.9 0.00 0.00 0.00 82 1016.0
20260502060059 53 0 0.0 0.9 0.00 0.00 0.00 82 1016.0
20260502055550 53 0 0.0 1.7 0.00 0.00 0.00 82 1016.1
20260502055048 53 0 0.0 1.7 0.00 0.00 0.00 82 1015.9
20260502054552 54 0 0.0 1.7 0.00 0.00 0.00 82 1015.9
20260502054049 54 0 0.0 2.6 0.00 0.00 0.00 82 1015.8
20260502053548 54 0 0.0 2.6 0.00 0.00 0.00 81 1015.9
20260502053052 54 212 0.0 1.7 0.00 0.00 0.00 80 1015.9
20260502052551 54 0 0.0 0.9 0.00 0.00 0.00 80 1015.8
20260502052048 54 0 0.0 0.9 0.00 0.00 0.00 79 1015.9
20260502051634 54 0 0.0 0.9 0.00 0.00 0.00 79 1015.8
20260502051047 54 0 0.0 1.7 0.00 0.00 0.00 79 1015.8
20260502050547 55 0 0.0 1.7 0.00 0.00 0.00 78 1015.9
20260502050054 55 0 0.0 0.0 0.00 0.00 0.00 78 1015.7
20260502045548 55 0 0.0 2.6 0.00 0.00 0.00 78 1015.5
20260502045048 55 0 0.0 2.6 0.00 0.00 0.00 77 1015.6
20260502044602 55 0 0.0 2.6 0.00 0.00 0.00 76 1015.6
20260502044048 55 0 0.0 2.6 0.00 0.00 0.00 76 1015.6
20260502043548 55 200 0.0 2.6 0.00 0.00 0.00 76 1015.7
20260502043053 55 0 0.9 2.6 0.00 0.00 0.00 77 1015.6
20260502042551 55 200 0.9 2.6 0.00 0.00 0.00 78 1015.6
20260502042048 55 0 0.0 0.0 0.00 0.00 0.00 77 1015.6
20260502041550 56 0 0.0 0.9 0.00 0.00 0.00 77 1015.4
20260502041052 56 0 0.0 1.7 0.00 0.00 0.00 76 1015.6
20260502040548 56 0 0.0 2.6 0.00 0.00 0.00 76 1015.4
20260502040052 56 200 0.9 2.6 0.00 0.00 0.00 74 1015.6
20260502035547 57 0 0.0 4.3 0.00 0.00 0.00 75 1015.7
20260502035048 57 0 0.9 4.3 0.00 0.00 0.00 72 1015.6
20260502034552 57 168 0.9 7.0 0.00 0.00 0.00 73 1015.7
20260502034048 57 0 0.9 7.0 0.00 0.00 0.00 71 1015.6
20260502033549 57 304 1.7 7.8 0.00 0.00 0.00 70 1015.3
20260502033056 58 314 1.7 7.8 0.00 0.00 0.00 68 1015.0
20260502032547 58 330 2.6 6.1 0.00 0.00 0.00 69 1015.1
20260502032047 58 329 1.7 11.3 0.00 0.00 0.00 68 1015.2
20260502031607 58 190 0.0 11.3 0.00 0.00 0.00 68 1015.5
20260502031047 59 250 2.6 7.8 0.00 0.00 0.00 68 1015.5
20260502030552 59 223 1.7 5.2 0.00 0.00 0.00 68 1015.2
20260502030052 59 215 0.9 4.3 0.00 0.00 0.00 68 1015.1
20260502025548 60 0 0.9 3.5 0.00 0.00 0.00 68 1014.9
20260502025048 60 256 0.0 3.5 0.00 0.00 0.00 68 1014.9
20260502024555 60 316 0.0 4.3 0.00 0.00 0.00 68 1014.8
20260502024049 60 0 0.9 4.3 0.00 0.00 0.00 67 1014.7
20260502023548 60 250 1.7 6.1 0.00 0.00 0.00 67 1014.6
20260502023052 61 314 0.0 6.1 0.00 0.00 0.00 67 1014.6
20260502022550 61 295 1.7 5.2 0.00 0.00 0.00 68 1014.5
20260502022047 61 0 0.9 5.2 0.00 0.00 0.00 69 1014.5
20260502021552 62 270 1.7 8.7 0.00 0.00 0.00 69 1014.4
20260502021047 62 315 2.6 8.7 0.00 0.00 0.00 69 1014.4
20260502020550 62 328 2.6 7.8 0.00 0.00 0.00 69 1014.4
20260502020105 62 304 1.7 6.1 0.00 0.00 0.00 69 1014.5
20260502015547 62 0 1.7 7.0 0.00 0.00 0.00 69 1014.4
20260502015050 62 0 1.7 7.0 0.00 0.00 0.00 70 1014.4
20260502014550 62 308 2.6 7.8 0.00 0.00 0.00 70 1014.4
20260502014047 62 0 2.6 7.8 0.00 0.00 0.00 69 1014.4
20260502013548 63 327 1.7 8.7 0.00 0.00 0.00 70 1014.4
20260502013056 63 319 3.5 8.7 0.00 0.00 0.00 69 1014.3
20260502012547 63 42 1.7 8.7 0.00 0.00 0.00 69 1014.3
20260502012045 64 33 3.5 8.7 0.00 0.00 0.00 68 1014.3
20260502011551 64 327 3.5 10.4 0.00 0.00 0.00 68 1014.3
20260502011044 65 319 2.6 10.4 0.00 0.00 0.00 67 1014.3
20260502010549 65 319 3.5 10.4 0.00 0.00 0.00 67 1014.3
20260502010054 65 286 1.7 8.7 0.00 0.00 0.00 66 1014.3
20260502005546 66 347 3.5 10.4 0.00 0.00 0.00 65 1014.2
20260502005047 66 314 2.6 10.4 0.00 0.00 0.00 65 1014.3
20260502004549 67 342 2.6 9.6 0.00 0.00 0.00 65 1014.2
20260502004045 66 331 3.5 9.6 0.00 0.00 0.00 65 1014.3
20260502003549 67 299 2.6 7.8 0.00 0.00 0.00 65 1014.2
20260502003047 67 222 2.6 8.7 0.00 0.00 0.00 64 1014.3
20260502002545 67 41 2.6 8.7 0.00 0.00 0.00 65 1014.2
20260502002045 67 308 4.3 8.7 0.00 0.00 0.00 65 1014.1
20260502001552 68 314 3.5 8.7 0.00 0.00 0.00 64 1014.2
20260502001046 69 200 1.7 9.6 0.00 0.00 0.00 63 1014.2
20260502000543 68 325 1.7 9.6 0.00 0.00 0.00 64 1014.1
20260502000051 69 36 2.6 8.7 0.00 0.00 0.00 64 1014.0
20260501235546 69 253 3.5 8.7 0.00 0.00 0.00 63 1014.0
20260501235046 69 316 1.7 7.0 0.00 0.00 0.00 63 1014.0
20260501234559 69 307 0.9 8.7 0.00 0.00 0.00 64 1014.1
20260501234046 68 225 3.5 8.7 0.00 0.00 0.00 63 1014.0
20260501233546 69 220 2.6 8.7 0.00 0.00 0.00 62 1014.1
20260501233104 70 310 2.6 8.7 0.00 0.00 0.00 61 1014.0
20260501232546 70 330 2.6 9.6 0.00 0.00 0.00 61 1014.1
20260501232049 70 284 3.5 9.6 0.00 0.00 0.00 63 1014.3
20260501231608 70 274 1.7 8.7 0.00 0.00 0.00 62 1014.3
20260501231046 70 329 1.7 8.7 0.00 0.00 0.00 62 1014.4
20260501230545 69 33 2.6 8.7 0.00 0.00 0.00 64 1014.4
20260501230120 69 286 1.7 8.7 0.00 0.00 0.00 64 1014.5
20260501225547 69 267 3.5 8.7 0.00 0.00 0.00 64 1014.5
20260501225046 70 10 1.7 7.8 0.00 0.00 0.00 63 1014.6
20260501224557 70 238 2.6 8.7 0.00 0.00 0.00 63 1014.6
20260501224044 71 271 2.6 8.7 0.00 0.00 0.00 62 1014.7
20260501223547 70 296 1.7 8.7 0.00 0.00 0.00 64 1014.6
20260501223100 71 302 2.6 7.8 0.00 0.00 0.00 63 1014.6
20260501222547 71 304 1.7 7.8 0.00 0.00 0.00 63 1014.7
20260501222051 71 0 2.6 8.7 0.00 0.00 0.00 61 1014.7
20260501221550 71 304 0.9 8.7 0.00 0.00 0.00 62 1014.8
20260501221047 71 302 1.7 7.8 0.00 0.00 0.00 62 1014.8
20260501220549 71 323 1.7 7.8 0.00 0.00 0.00 64 1014.7
20260501220055 71 280 1.7 6.1 0.00 0.00 0.00 62 1014.9
20260501215547 71 0 0.9 6.1 0.00 0.00 0.00 62 1014.9
20260501215048 70 360 0.9 7.8 0.00 0.00 0.00 62 1015.1
20260501214600 70 302 1.7 7.8 0.00 0.00 0.00 61 1015.1
20260501214048 70 295 2.6 7.0 0.00 0.00 0.00 59 1015.2
20260501213548 71 329 0.9 6.1 0.00 0.00 0.00 56 1015.2
20260501213059 70 230 1.7 7.8 0.00 0.00 0.00 57 1015.2
20260501212549 69 329 2.6 7.8 0.00 0.00 0.00 58 1015.4
20260501212048 70 340 2.6 7.8 0.00 0.00 0.00 59 1015.4
20260501211550 69 37 1.7 7.0 0.00 0.00 0.00 58 1015.4
20260501211047 69 0 1.7 6.1 0.00 0.00 0.00 62 1015.4
20260501210547 69 320 1.7 7.8 0.00 0.00 0.00 61 1015.3
20260501210052 69 0 3.5 7.8 0.00 0.00 0.00 58 1015.4
20260501205548 69 219 2.6 7.0 0.00 0.00 0.00 60 1015.3
20260501205048 69 288 1.7 6.1 0.00 0.00 0.00 57 1015.4
20260501204551 69 350 2.6 6.1 0.00 0.00 0.00 58 1015.4
20260501204049 69 209 1.7 6.1 0.00 0.00 0.00 55 1015.4
20260501203548 68 0 0.9 5.2 0.00 0.00 0.00 58 1015.5
20260501203051 68 306 0.9 7.0 0.00 0.00 0.00 61 1015.5
20260501202547 67 352 2.6 7.0 0.00 0.00 0.00 61 1015.6
20260501202049 68 300 1.7 6.1 0.00 0.00 0.00 62 1015.7
20260501201553 67 360 1.7 7.8 0.00 0.00 0.00 64 1015.7
20260501201052 67 292 1.7 7.8 0.00 0.00 0.00 64 1015.7
20260501200552 66 0 2.6 7.8 0.00 0.00 0.00 64 1015.8
20260501200050 66 298 1.7 7.0 0.00 0.00 0.00 64 1015.8
20260501195548 66 302 1.7 7.0 0.00 0.00 0.00 64 1015.8
20260501195050 65 297 2.6 7.0 0.00 0.00 0.00 65 1015.8
20260501194600 66 317 1.7 7.0 0.00 0.00 0.00 67 1015.9
20260501194046 66 265 2.6 7.0 0.00 0.00 0.00 67 1015.8
20260501193551 66 0 0.9 7.0 0.00 0.00 0.00 68 1015.8
20260501193052 66 48 2.6 6.1 0.00 0.00 0.00 66 1015.9
20260501192548 67 300 1.7 5.2 0.00 0.00 0.00 65 1015.9
20260501192048 66 307 1.7 7.0 0.00 0.00 0.00 67 1016.0
20260501191554 66 311 1.7 7.0 0.00 0.00 0.00 65 1016.0
20260501191047 66 280 1.7 6.1 0.00 0.00 0.00 67 1016.0